sat.trackr.live / text

‹ back to catalog

INMARSAT GX5

NORAD 44801 · 2019-080B

PAYLOAD ACTIVE UNKNOWN

§ Identity

Operator
Country
IM
Launch date
2019-11-26
Launch site
FRGUI
Launch vehicle
Mass (kg)
RCS (m²)

Purposes: comms

External: N2YO · Heavens-Above · Gunter

§ Orbital elements

Epoch: 2026-09-20T03:17:12.811776Z

Period
1,436.08 min
Inclination
0.0492°
Eccentricity
0.0002180
Mean motion
1.00272974 rev/d
Perigee alt
35,777.1 km
Apogee alt
35,795.5 km
Semi-major
42,164.4 km
B*
0.0000e+0
RAAN
9.6787°
Arg perigee
175.1166°
Mean anomaly
234.5506°
Rev number
773

§ Raw data

INMARSAT GX51 44801U 19080B   26263.13695384  .00000071  00000+0  00000+0 0  99992 44801   0.0492   9.6787 0002180 175.1166 234.5506  1.00272974  7733

JSON: /api/v1/satellites/44801 · /tle

For live sub-satellite position, see the globe view (requires WebGL).

§ Visibility from observer

Set your observer location to see the next 7 days of passes ≥ 10°. The values pass through the URL so the page stays shareable.

No JS? Fill the form by hand. The geolocation button needs JavaScript.